Flag for Greenland Weather past 2 weeks in Danmarkshavn, Greenland

Now
25 °F

Sunny.


Feels Like: 15 °F
Forecast: N/A
Wind: 9 mph from East

Location: Danmarkshavn

Current Time: May 25, 2015 at 8:43:06 PM

Latest Report: May 25, 2015 at 7:00 PM


Visibility: 25 mi

Pressure: 29.95 "Hg

Humidity: 78%

Dew point: 19 °F

Location of DanmarkshavnLocation

Historic Weather in Danmarkshavn — Graph

°F

Danmarkshavn temperature yesterday

Maximum temperature yesterday: 29 °F (at 3:00 PM)
Minimum temperature yesterday: 19 °F (at 1:00 AM)
Average temperature yesterday: 25 °F

Past Weeks' High & Low Weather Summary

 TemperatureHumidityPressure
High29 °F (May 24, 3:00 PM)93% (May 18, 10:00 PM)30.16 "Hg (May 18, 10:00 PM)
Low-8 °F (May 11, 2:00 AM)51% (May 24, 3:00 PM)29.58 "Hg (May 23, 3:00 PM)
Average14 °F79%29.91 "Hg
* Reported May 10 7:00 PM — May 25 7:00 PM, Danmarkshavn, Weather by CustomWeather, © 2015

Note: Actual official high and low records may vary slightly from our data, if they occured in-between our weather recording intervals... More about our weather records

Advertising

Danmarkshavn weather history for previous 24 hours

 ConditionsComfort  
Time TempWeatherWind HumidityBarometerVisibility
7:00 PM
Mon, May 25
25 °FSunny.9 mph78%29.95 "Hg25 mi
6:00 PM25 °FSunny.10 mph76%29.95 "Hg28 mi
5:00 PM25 °FSunny.9 mph76%29.95 "Hg25 mi
4:00 PM25 °FSunny.10 mph77%29.95 "Hg28 mi
3:00 PM24 °FSunny.10 mph75%29.96 "Hg22 mi
12:00 PM21 °FSunny.9 mph74%29.97 "Hg25 mi
11:00 AM20 °FSunny.8 mph70%29.97 "Hg25 mi
10:00 AM20 °FSunny.9 mph69%29.98 "Hg31 mi
9:00 AM19 °FPassing clouds.7 mph69%29.99 "Hg31 mi
8:00 AM19 °FPassing clouds.8 mph72%29.99 "Hg31 mi
7:00 AM18 °FSunny.7 mph72%29.99 "Hg28 mi
6:00 AM19 °FSunny.7 mph70%30.00 "Hg31 mi
5:00 AM20 °FPassing clouds.3 mph66%30.00 "Hg28 mi
4:00 AM20 °FSunny.2 mph68%30.00 "Hg31 mi
3:00 AM19 °FSunny.3 mph73%30.00 "Hg31 mi
2:00 AM21 °FPassing clouds.1 mph62%30.01 "Hg31 mi
1:00 AM20 °FSunny.2 mph65%30.01 "Hg28 mi
12:00 AM22 °FSunny.2 mph60%30.01 "Hg25 mi
11:00 PM
Sun, May 24
24 °FSunny.1 mph58%30.01 "Hg25 mi
10:00 PM23 °FSunny.1 mph59%30.00 "Hg28 mi
8:00 PM22 °FSunny.2 mph72%29.99 "Hg28 mi
Weather by CustomWeather, © 2015

See weather overviewHow to use our weather pages